Weather History for Aniak, AK

Change the Weather History Date:

Wednesday, October 31, 2012

  Actual Average Record
Temperature  
Mean Temperature 17 °F -  
Max Temperature 24 °F 27 °F 46 °F (2002)
Min Temperature 10 °F 16 °F -14 °F (1997)
Degree Days  
Heating Degree Days 48    
Moisture  
Dew Point 8 °F    
Average Humidity 64    
Maximum Humidity 92    
Minimum Humidity 50    
Precipitation  
Precipitation 0.00 in - - ()
Sea Level Pressure  
Sea Level Pressure 30.02 in    
Wind  
Wind Speed 12 mph (North)    
Max Wind Speed 24 mph    
Max Gust Speed 32 mph    
Visibility 10 miles    
Events      
Averages and records for this station are not official NWS values.
T = Trace of Precipitation, MM = Missing Value Source: NWS Daily Summary

Daily Weather History Graph

Daily Weather History Graph

Search for Another Location

Airport:

Trip Planner

Search our weather history database for the weather conditions in past years. The results will help you decide how hot, cold, wet, or windy it might be!

Date:

Astronomy

Oct. 31, 2012 Rise Set
Actual Time 10:06 AM AKDT 6:35 PM AKDT
Civil Twilight 9:19 AM AKDT 7:23 PM AKDT
Nautical Twilight 8:26 AM AKDT 8:15 PM AKDT
Astronomical Twilight 7:36 AM AKDT 9:05 PM AKDT
Moon 7:14 PM AKDT (10/31) 12:38 PM AKDT (10/31)
Length of Visible Light 10h 04m
Length of Day
8h 28m
Waning Gibbous, 96% of the Moon is Illuminated
Oct 31
Waning Gibbous
Nov 6
Last Quarter
Nov 13
New
Nov 20
First Quarter
Nov 28
Full

Hourly Weather History & Observations

Time (AKDT) Temp. Windchill Dew Point Humidity Pressure Visibility Wind Dir Wind Speed Gust Speed Precip Events Conditions
12:16 AM 19.4 °F 7.2 °F 10.4 °F 68% 30.15 in 10.0 mi NNW 11.5 mph 17.3 mph N/A   Mostly Cloudy
12:36 AM 17.6 °F 5.0 °F 12.2 °F 79% 30.15 in 10.0 mi NNW 11.5 mph - N/A   Partly Cloudy
12:56 AM 17.6 °F 4.3 °F 10.4 °F 73% 30.14 in 10.0 mi North 12.7 mph 20.7 mph N/A   Clear
1:16 AM 17.6 °F 6.4 °F 10.4 °F 73% 30.15 in 10.0 mi North 9.2 mph - N/A   Clear
1:36 AM 17.6 °F 8.2 °F 10.4 °F 73% 30.14 in 10.0 mi North 6.9 mph - N/A   Clear
1:56 AM 17.6 °F 5.0 °F 10.4 °F 73% 30.14 in 10.0 mi North 11.5 mph 18.4 mph N/A   Clear
2:16 AM 15.8 °F 2.7 °F 8.6 °F 73% 30.14 in 10.0 mi North 11.5 mph - N/A   Clear
2:36 AM 15.8 °F 3.4 °F 8.6 °F 73% 30.13 in 10.0 mi North 10.4 mph - N/A   Clear
2:56 AM 15.8 °F 4.2 °F 10.4 °F 79% 30.13 in 10.0 mi North 9.2 mph 16.1 mph N/A   Clear
3:16 AM 15.8 °F 3.4 °F 8.6 °F 73% 30.13 in 10.0 mi North 10.4 mph - N/A   Clear
3:36 AM 15.8 °F 4.2 °F 10.4 °F 79% 30.13 in 10.0 mi North 9.2 mph - N/A   Clear
3:56 AM 15.8 °F 6.1 °F 8.6 °F 73% 30.13 in 10.0 mi North 6.9 mph - N/A   Clear
4:16 AM 15.8 °F 4.2 °F 8.6 °F 73% 30.12 in 10.0 mi North 9.2 mph - N/A   Clear
4:36 AM 15.8 °F 6.1 °F 8.6 °F 73% 30.12 in 10.0 mi North 6.9 mph - N/A   Clear
4:56 AM 14.0 °F 5.1 °F 6.8 °F 73% 30.12 in 10.0 mi North 5.8 mph - N/A   Clear
5:16 AM 12.2 °F 2.9 °F 6.8 °F 79% 30.11 in 10.0 mi NNE 5.8 mph - N/A   Clear
5:36 AM 12.2 °F 1.7 °F 6.8 °F 79% 30.11 in 10.0 mi NE 6.9 mph - N/A   Clear
5:56 AM 12.2 °F 4.3 °F 6.8 °F 79% 30.10 in 10.0 mi NNE 4.6 mph - N/A   Clear
6:16 AM 10.4 °F 0.8 °F 6.8 °F 85% 30.09 in 10.0 mi NE 5.8 mph - N/A   Clear
6:36 AM 15.8 °F 0.9 °F 10.4 °F 79% 30.08 in 10.0 mi North 15.0 mph 20.7 mph N/A   Clear
6:56 AM 15.8 °F 1.4 °F 6.8 °F 68% 30.08 in 10.0 mi North 13.8 mph 24.2 mph N/A   Clear
7:16 AM 12.2 °F 1.7 °F 5.0 °F 73% 30.09 in 10.0 mi ENE 6.9 mph - N/A   Clear
7:36 AM 10.4 °F 2.2 °F 8.6 °F 92% 30.09 in 10.0 mi ENE 4.6 mph - N/A   Clear
7:56 AM 10.4 °F 2.2 °F 3.2 °F 73% 30.08 in 10.0 mi NE 4.6 mph - N/A   Clear
8:16 AM 14.0 °F -2.0 °F 8.6 °F 79% 30.06 in 10.0 mi NNW 16.1 mph 20.7 mph N/A   Clear
8:36 AM 15.8 °F 0.3 °F 6.8 °F 68% 30.06 in 10.0 mi North 16.1 mph 20.7 mph N/A   Clear
8:56 AM 15.8 °F 0.3 °F 6.8 °F 68% 30.05 in 10.0 mi NNW 16.1 mph 24.2 mph N/A   Clear
9:16 AM 15.8 °F 1.4 °F 6.8 °F 68% 30.05 in 10.0 mi North 13.8 mph 23.0 mph N/A   Clear
9:36 AM 12.2 °F -1.0 °F 5.0 °F 73% 30.06 in 10.0 mi North 10.4 mph 17.3 mph N/A   Clear
9:56 AM 12.2 °F -6.7 °F 5.0 °F 73% 30.02 in 10.0 mi NNW 21.9 mph 27.6 mph N/A   Clear
10:16 AM 15.8 °F -1.1 °F 6.8 °F 68% 30.01 in 10.0 mi NNW 19.6 mph 29.9 mph N/A   Clear
10:36 AM 15.8 °F 0.3 °F 6.8 °F 68% 30.01 in 10.0 mi North 16.1 mph 20.7 mph N/A   Clear
10:56 AM 15.8 °F 2.7 °F 6.8 °F 68% 30.02 in 10.0 mi North 11.5 mph 21.9 mph N/A   Clear
11:16 AM 15.8 °F 3.4 °F 6.8 °F 68% 30.02 in 10.0 mi North 10.4 mph 17.3 mph N/A   Clear
11:36 AM 15.8 °F 1.4 °F 8.6 °F 73% 30.02 in 10.0 mi North 13.8 mph - N/A   Clear
11:56 AM 17.6 °F 4.3 °F 6.8 °F 63% 30.02 in 10.0 mi NNW 12.7 mph 18.4 mph N/A   Clear
12:16 PM 17.6 °F 1.3 °F 8.6 °F 68% 30.02 in 10.0 mi North 19.6 mph - N/A   Clear
12:36 PM 19.4 °F 11.5 °F 8.6 °F 63% 30.02 in 10.0 mi NNE 5.8 mph 20.7 mph N/A   Clear
12:56 PM 19.4 °F 7.9 °F 6.8 °F 58% 30.01 in 10.0 mi North 10.4 mph 19.6 mph N/A   Clear
1:16 PM 19.4 °F 4.5 °F 8.6 °F 63% 29.99 in 10.0 mi North 17.3 mph 26.5 mph N/A   Clear
1:36 PM 21.2 °F 8.3 °F 8.6 °F 58% 29.98 in 10.0 mi NNE 13.8 mph 28.8 mph N/A   Clear
1:56 PM 21.2 °F 8.3 °F 8.6 °F 58% 29.98 in 10.0 mi NNE 13.8 mph 25.3 mph N/A   Clear
2:16 PM 23.0 °F 10.1 °F 8.6 °F 54% 29.97 in 10.0 mi North 15.0 mph 27.6 mph N/A   Clear
2:36 PM 23.0 °F 8.3 °F 8.6 °F 54% 29.97 in 10.0 mi North 19.6 mph 31.1 mph N/A   Clear
2:56 PM 23.0 °F 7.6 °F 8.6 °F 54% 29.96 in 10.0 mi North 21.9 mph 27.6 mph N/A   Clear
3:16 PM 24.8 °F 11.5 °F 8.6 °F 50% 29.96 in 10.0 mi NNE 17.3 mph 26.5 mph N/A   Clear
3:36 PM 24.8 °F 11.1 °F 8.6 °F 50% 29.95 in 10.0 mi North 18.4 mph 28.8 mph N/A   Clear
3:56 PM 24.8 °F 11.1 °F 8.6 °F 50% 29.95 in 10.0 mi North 18.4 mph 31.1 mph N/A   Clear
4:16 PM 24.8 °F 9.3 °F 8.6 °F 50% 29.94 in 10.0 mi North 24.2 mph 32.2 mph N/A   Clear
4:36 PM 24.8 °F 10.7 °F 8.6 °F 50% 29.93 in 10.0 mi North 19.6 mph 29.9 mph N/A   Clear
4:56 PM 24.8 °F 10.3 °F 8.6 °F 50% 29.92 in 10.0 mi North 20.7 mph 32.2 mph N/A   Clear
5:16 PM 24.8 °F 12.4 °F 8.6 °F 50% 29.93 in 10.0 mi North 15.0 mph 28.8 mph N/A   Clear
5:36 PM 24.8 °F 12.4 °F 8.6 °F 50% 29.93 in 10.0 mi North 15.0 mph 25.3 mph N/A   Clear
5:56 PM 23.0 °F 11.7 °F 8.6 °F 54% 29.93 in 10.0 mi North 11.5 mph 19.6 mph N/A   Clear
6:16 PM 23.0 °F 10.6 °F 8.6 °F 54% 29.93 in 10.0 mi North 13.8 mph 26.5 mph N/A   Clear
6:36 PM 23.0 °F 12.4 °F 8.6 °F 54% 29.94 in 10.0 mi North 10.4 mph 16.1 mph N/A   Scattered Clouds
6:56 PM 23.0 °F 11.7 °F 6.8 °F 50% 29.94 in 10.0 mi North 11.5 mph 23.0 mph N/A   Overcast
7:16 PM 21.2 °F 7.8 °F 6.8 °F 54% 29.94 in 10.0 mi North 15.0 mph 26.5 mph N/A   Scattered Clouds
7:36 PM 21.2 °F 8.9 °F 6.8 °F 54% 29.94 in 10.0 mi North 12.7 mph 20.7 mph N/A   Clear
7:56 PM 21.2 °F 9.5 °F 6.8 °F 54% 29.94 in 10.0 mi North 11.5 mph 21.9 mph N/A   Partly Cloudy
8:16 PM 21.2 °F 8.9 °F 6.8 °F 54% 29.94 in 10.0 mi North 12.7 mph 17.3 mph N/A   Clear
8:36 PM 21.2 °F 8.9 °F 6.8 °F 54% 29.93 in 10.0 mi North 12.7 mph 21.9 mph N/A   Clear
9:16 PM 21.2 °F 6.8 °F 6.8 °F 54% 29.92 in 10.0 mi North 17.3 mph 31.1 mph N/A   Clear
9:36 PM 21.2 °F 6.8 °F 6.8 °F 54% 29.92 in 10.0 mi North 17.3 mph 31.1 mph N/A   Clear
9:56 PM 21.2 °F 7.3 °F 6.8 °F 54% 29.92 in 10.0 mi NNE 16.1 mph 25.3 mph N/A   Clear
10:16 PM 21.2 °F 7.8 °F 6.8 °F 54% 29.93 in 10.0 mi North 15.0 mph 24.2 mph N/A   Clear
10:36 PM 21.2 °F 8.3 °F 6.8 °F 54% 29.93 in 10.0 mi North 13.8 mph 26.5 mph N/A   Clear
10:56 PM 19.4 °F 4.5 °F 6.8 °F 58% 29.93 in 10.0 mi North 17.3 mph 24.2 mph N/A   Clear
11:16 PM 19.4 °F 6.0 °F 8.6 °F 63% 29.93 in 10.0 mi North 13.8 mph 23.0 mph N/A   Clear
11:36 PM 19.4 °F 6.0 °F 6.8 °F 58% 29.93 in 10.0 mi NNE 13.8 mph 21.9 mph N/A   Clear
11:56 PM 19.4 °F 5.0 °F 6.8 °F 58% 29.92 in 10.0 mi NNE 16.1 mph 23.0 mph N/A   Clear